Погода Комсомольск-на-Амуре

Погода Комсомольск-на-Амуре : погода сейчас, прогноз погоды и архив. Всё, что Вы хотите узнать о погоде Комсомольск-на-Амуре!

Хотите узнать прогноз погоды Комсомольск-на-Амуре? Тогда Вам сюда: Погода Комсомольск-на-Амуре

Поиск расширенной информации на нашем сайте:

Другие новости

Новости СМИ2

Главная страница сайта

Новости сайта

03.07.2017

Напоминаем, что на нашем специализированном сайте Метеоцентр.Азия вы можете получить высокодетализированные автоматические прогнозы погоды по пунктам России, СНГ и мира в авиационном формате (включающие направление и скорость ветра, видимость, явления погоды, количество и форму облачности, нижнюю и верхнюю границу облачности).

Рекомендуем: Типографии московский печатный двор.

Погода Комсомольск-на-Амуре - сегодня

Время (UTC), дата Ветер
(°,м/с) 
Видим.   Явления Облачность Т
(°С)
Тd
(°С)
f(%) Тe
(°С)
Pmin
(гПа)
dP
(гПа)
Po
(мм)
O2
(г/м3)
Тmin Tmax R s Состояние
почвы
18 20.11.17 тихо ()   20000 м    ясно 
-28.7 -31.9 74 -29  1014  2.2  758  343           
21 20.11.17 тихо ()   20000 м    ясно 
-28.8 -32.1 73 -29  1015.5  1.5  760  344  -29.5      равномерный
сухой снег
100% 
00 21.11.17 180 (Ю) 20000 м    10/1 600 м средняя, верхняя 
[Sc|Ac trans|Cc]
-21.1 -23.7 80 -26  1015.7  0.2  760  333           
03 21.11.17 200 (Ю) 6-11{11}  20000 м    1/0 средняя 
[Ac lent]
-13.9 -21.7 52 -20  1015.1  -0.5  759  324           
06 21.11.17 180 (Ю) 5{12}  20000 м    1/0 верхняя 
[Ci fib]
-13 -18.8 62 -18  1014.3  -0.9  759  322           
09 21.11.17 160 (Ю) 20000 м    10/0 средняя, верхняя 
[Ac trans|Cs]
-13.2 -16.5 76 -19  1014.5  -0.9  759  323    -12.9       
12 21.11.17 160 (Ю) 5{11}  20000 м    10/0 средняя, верхняя 
[As trans|Cs]
-13.2 -16.7 75 -18  1014.1  -0.4  759  323           
15 21.11.17 290 (З) 98  11000 м    10/10 600 м 
[As trans]
-12.5 -15.2 80 -32  1013.6  -0.5  758  322           
18 21.11.17 170 (Ю) 10 км  слаб. снег  10/0 средняя 
[As op]
-11.5 -14.2 80 -15  1011.8  -1.7  757  320           
21 21.11.17 160 (Ю) 4000 м  слаб. снег  10/0 средняя 
[As op]
-11.1 -12.8 87 -13  1009.9  -2  755  318  -13.5    0.7  равномерный
сухой снег
100% 
00 22.11.17 тихо ()   4000 м  слаб. снег  10/0 средняя 
[As op]
-10.2 -12.2 85 -10  1007.3  -2  754  317           
03 22.11.17 360 (С) 20000 м  в посл. час снег  10/0 средняя, верхняя 
[As op|Cs]
-8.5 -11.5 79 -10  1004  -3.3  751  313           
06 22.11.17 010 (С) 10 км  слаб. снег  10/0 средняя 
[As op]
-7.9 -10.4 82 -9  1004  -0.1  751  313           
09 22.11.17 350 (С) 4000 м  слаб. снег  10/0 средняя 
[As op]
-9.3 -11.3 85 -12  1005.3  1.3  752  315    -7.7  0.7     
12 22.11.17 340 (С) 4000 м  слаб. снег  10/0 средняя 
[As op]
-10.5 -12.7 84 -10  1006.9  1.6  753  317           
15 22.11.17 020 (С) 4000 м  слаб. снег  10/0 средняя 
[As op]
-11.1 -12.8 87 -11  1008.1  1.1  754  318           
18 22.11.17 010 (С) 4000 м  слаб. снег  10/0 средняя 
[As op]
-13.1 -14.9 86 -13  1008.9  0.8  755  321           
21 22.11.17 010 (С) 10 км  слаб. снег  10/0 средняя, верхняя 
[As op|Cs]
-14 -17.1 77 -16  1009.1  0.3  755  322  -14    равномерный
сухой снег
100% 
00 23.11.17 020 (С) 20000 м  {снег}  9/5 600 м средняя, верхняя 
[Sc|Ac As|Cc]
-14.9 -18.2 76 -17  1010.3  1.1  756  324  -15.8         
03 23.11.17 010 (С) 20000 м    8/0 средняя, верхняя 
[Ac trans|Cc]
-11.3 -16.7 64 -14  1009.5  -0.8  755  319           
06 23.11.17 030 (СВ) 20000 м    8/3 600 м средняя, верхняя 
[Sc|Ac trans|Cc]
-11.7 -16.9 65 -14  1009.5  -0.1  755  319           
09 23.11.17 010 (С) 20000 м    3/3 600 м 
[Sc]
-14.3 -17.6 76 -14  1010.9  1.3  756  323    -10.7       
12 23.11.17 020 (С) 20000 м    3/3 600 м 
[Sc]
-16.3 -18.9 80 -19  1010.7  -0.2  756  325           
15 23.11.17 250 (З) 20000 м    ясно 
-22.3 -24.5 82 -23  1010.5  -0.3  756  333           
18 23.11.17 270 (З) 20000 м    3/0 верхняя 
[Ci fib]
-23.3 -25.9 79 -24  1010  -0.5  755  335           
Время (UTC), дата Ветер
(°,м/с) 
Видим.   Явления Облачность Т
(°С)
Тd
(°С)
f(%) Тe
(°С)
Pmin
(гПа)
dP
(гПа)
Po
(мм)
O2
(г/м3)
Тmin Tmax R s Состояние
почвы

Для получения пояснительной информации подведите курсор к названию столбца.

ПОГОДА Комсомольск-на-Амуре - архив

Всё, что Вы хотите узнать о погоде Комсомольск-на-Амуре - удобно и подробно!

Выберите нужную дату (начиная с 1 января 2015* года) и нажмите кнопку "Найти".
Будут отображены архивные сводки погоды по пункту Комсомольск-на-Амуре, начиная с указанной даты.


Отображать данные в формате CSV (для использования в таблицах Excel)


Внимание! Наш архив погоды предназначен исключительно для личного некоммерческого использования в познавательных целях. Если Вам необходимы официальные справки о состоянии погоды (для производственных, юридических, коммерческих и т.п. целей), обращайтесь в органы Росгидромета.

*Примечание: данная дата относится к архиву по метеостанциям СССР (Россия, СНГ, Балтия).
Архив по метеостанциям Зарубежной Европы и Азии (кроме Китая) хранится 10 дней, по другим регионам земного шара (Китай, Африка, Америка, Австралия, Океания) - 1 день.

Комсомольск-на-Амуре - район местоположения метеостанции


Название, широта, долгота, высота метеостанции:
Комсомольск-на-Амуре 50.6°ш. 137°д. 19 м над ур. моря [Российская Федерация]

Дополнительная информация

В oтличие oт бoльшинства пoгoдных сайтoв мы публикуем пoдрoбную метеoинфoрмацию в детальнoм прoфессиoнальнoм фoрмате.

Характеристики температуры и влажнoсти вoздуха измеряются на высoте 2 м в тени вдали oт зданий и деревьев.
Скoрoсть ветра измеряется на высoте 10 м (на урoвне рoста челoвека скoрoсть ветра ниже в 1.5-2 раза). Если метеoстанция нахoдится в гoрoде или в лесу, тo скoрoсть ветра занижена на 2-4 м/с пo сравнению с oткрытым местoм. Скoрoсть ветра над акватoриями крупных рек и oзёр, а также на вершинах хoлмoв на 2-5 м/с выше, чем в oбычных услoвиях.
Атмoсфернoе давление в разных тoчках местнoсти мoжет значительнo oтличаться oт давления на метеoстанции, в зависимoсти oт услoвий рельефа (при пoдъёме на 10 м давление пoнижается примернo на 1 мм рт.ст.).